Satellite: NOAA-10
Catalog number: 16969
Epoch time:      12025.96535746
Element set:    0798
Inclination:      098.5978 deg
RA of node:       057.4599 deg
Eccentricity:    0.0011518
Arg of perigee:   295.5236 deg
Mean anomaly:     064.4755 deg
Mean motion:   14.27523632 rev/day
Decay rate:       1.74e-06 rev/day^2
Epoch rev:           31943
Checksum:              352

Satellite: NOAA-11
Catalog number: 19531
Epoch time:      12025.80952574
Element set:    0793
Inclination:      098.7404 deg
RA of node:       113.9536 deg
Eccentricity:    0.0010420
Arg of perigee:   275.4302 deg
Mean anomaly:     084.5691 deg
Mean motion:   14.14949557 rev/day
Decay rate:      -1.05e-06 rev/day^2
Epoch rev:           20423
Checksum:              290

Satellite: NOAA-12
Catalog number: 21263
Epoch time:      12025.92752494
Element set:    0292
Inclination:      098.7387 deg
RA of node:       048.1917 deg
Eccentricity:    0.0012893
Arg of perigee:   257.8438 deg
Mean anomaly:     102.1297 deg
Mean motion:   14.25474010 rev/day
Decay rate:        6.7e-07 rev/day^2
Epoch rev:           07614
Checksum:              306

Satellite: MET-3/5
Catalog number: 21655
Epoch time:      12026.63284473
Element set:     320
Inclination:      082.5548 deg
RA of node:       252.8952 deg
Eccentricity:    0.0012867
Arg of perigee:   323.5625 deg
Mean anomaly:     036.4580 deg
Mean motion:   13.17035405 rev/day
Decay rate:        5.1e-07 rev/day^2
Epoch rev:           98313
Checksum:              291

Satellite: MET-2/21
Catalog number: 22782
Epoch time:      12025.83436603
Element set:    0321
Inclination:      082.5504 deg
RA of node:       146.2478 deg
Eccentricity:    0.0021976
Arg of perigee:   191.2338 deg
Mean anomaly:     168.8341 deg
Mean motion:   13.83675994 rev/day
Decay rate:        9.2e-07 rev/day^2
Epoch rev:           92934
Checksum:              318

Satellite: OKEAN-4
Catalog number: 23317
Epoch time:      12026.86426026
Element set:     787
Inclination:      082.5404 deg
RA of node:       164.2199 deg
Eccentricity:    0.0023188
Arg of perigee:   100.3899 deg
Mean anomaly:     259.9931 deg
Mean motion:   14.83552659 rev/day
Decay rate:      1.365e-05 rev/day^2
Epoch rev:           93370
Checksum:              326

Satellite: NOAA-14
Catalog number: 23455
Epoch time:      12025.95721295
Element set:    0777
Inclination:      098.8373 deg
RA of node:       111.2203 deg
Eccentricity:    0.0009842
Arg of perigee:   011.6761 deg
Mean anomaly:     348.4635 deg
Mean motion:   14.13872549 rev/day
Decay rate:        5.1e-07 rev/day^2
Epoch rev:           88055
Checksum:              308

Satellite: NOAA-15
Catalog number: 25338
Epoch time:      12025.82281680
Element set:    0114
Inclination:      098.6772 deg
RA of node:       014.1804 deg
Eccentricity:    0.0010985
Arg of perigee:   161.0734 deg
Mean anomaly:     199.0823 deg
Mean motion:   14.25023248 rev/day
Decay rate:       1.42e-06 rev/day^2
Epoch rev:           71243
Checksum:              277

Satellite: RESURS
Catalog number: 25394
Epoch time:      12026.86225053
Element set:     999
Inclination:      098.3089 deg
RA of node:       022.6692 deg
Eccentricity:    0.0001032
Arg of perigee:   339.8219 deg
Mean anomaly:     020.2922 deg
Mean motion:   14.24271019 rev/day
Decay rate:        6.5e-07 rev/day^2
Epoch rev:           70414
Checksum:              282

Satellite: FENGYUN1
Catalog number: 25730
Epoch time:      12025.88064419
Element set:    0528
Inclination:      098.8347 deg
RA of node:       347.4627 deg
Eccentricity:    0.0021442
Arg of perigee:   052.0559 deg
Mean anomaly:     308.2545 deg
Mean motion:   14.09180177 rev/day
Decay rate:      1.028e-05 rev/day^2
Epoch rev:           65442
Checksum:              299

Satellite: OKEAN-0
Catalog number: 25860
Epoch time:      12025.97185206
Element set:    0542
Inclination:      097.9150 deg
RA of node:       351.7201 deg
Eccentricity:    0.0001340
Arg of perigee:   043.5548 deg
Mean anomaly:     316.5765 deg
Mean motion:   14.74065461 rev/day
Decay rate:       5.55e-06 rev/day^2
Epoch rev:           67347
Checksum:              290

Satellite: NOAA-16
Catalog number: 26536
Epoch time:      12025.90105407
Element set:    0598
Inclination:      099.1153 deg
RA of node:       065.6827 deg
Eccentricity:    0.0011288
Arg of perigee:   125.6183 deg
Mean anomaly:     234.6017 deg
Mean motion:   14.12697670 rev/day
Decay rate:      -1.74e-06 rev/day^2
Epoch rev:           58480
Checksum:              309

Satellite: NOAA-17
Catalog number: 27453
Epoch time:      12025.72391704
Element set:    0575
Inclination:      098.3533 deg
RA of node:       059.9028 deg
Eccentricity:    0.0011197
Arg of perigee:   214.0139 deg
Mean anomaly:     146.0318 deg
Mean motion:   14.24386107 rev/day
Decay rate:        5.0e-07 rev/day^2
Epoch rev:           49833
Checksum:              294

Satellite: NOAA-18
Catalog number: 28654
Epoch time:      12025.74758509
Element set:    0051
Inclination:      099.0277 deg
RA of node:       342.7873 deg
Eccentricity:    0.0014063
Arg of perigee:   195.6917 deg
Mean anomaly:     164.3823 deg
Mean motion:   14.11594838 rev/day
Decay rate:        1.0e-08 rev/day^2
Epoch rev:           34432
Checksum:              315

